This demonstration page uses our WeatherBlox Daily Observations layout. Learn more.

Left ArrowRight Arrow

Hourly Observations for August 18, 2020

Temp ( °F °C ) Dew Point ( °F °C ) Humidity (%) Winds ( mph kmh ) Pressure ( in mb ) Visibility ( mi km ) Precip ( " mm )
12:52 am 00:52 Clear 68 20 59 15 73 73 NW 6 9 30.04 1017 10 16 0.00 0.00
1:52 am 01:52 Clear 66 18.9 59 15 78 78 NW 5 7 30.04 1017 10 16 0.00 0.00
2:52 am 02:52 Clear 62 16.7 59 15 90 90 NW 6 9 30.03 1017 10 16 0.00 0.00
3:52 am 03:52 Partly Cloudy 62 16.7 58 14.4 86 86 NW 5 7 30.03 1017 10 16 0.00 0.00
4:52 am 04:52 Clear 62 16.7 58 14.4 86 86 NW 3 6 30.03 1017 10 16 0.00 0.00
5:52 am 05:52 Clear 62 16.7 58 14.4 86 86 Calm 30.04 1017 10 16 0.00 0.00
6:52 am 06:52 Sunny 60 15.6 58 14.4 93 93 NW 6 9 30.05 1018 10 16 0.00 0.00
7:52 am 07:52 Sunny 64 17.8 60 15.6 87 87 NW 5 7 30.07 1018 10 16 0.00 0.00
8:52 am 08:52 Sunny 68 20 59 15 73 73 N 9 15 30.08 1019 10 16 0.00 0.00
9:52 am 09:52 Sunny 73 22.8 57 13.9 57 57 N 12 19 30.09 1019 10 16 0.00 0.00
10:52 am 10:52 Sunny 76 24.4 55 12.8 48 48 N 15 24 30.08 1019 10 16 0.00 0.00
11:52 am 11:52 Sunny 79 26.1 54 12.2 42 42 NNW 14 22 30.06 1018 10 16 0.00 0.00
12:52 pm 12:52 Sunny 81 27.2 53 11.7 38 38 N 16 26 30.05 1018 10 16 0.00 0.00
1:52 pm 13:52 Sunny 82 27.8 49 9.4 32 32 NNE 15 24 30.04 1017 10 16 0.00 0.00
2:52 pm 14:52 Sunny 82 27.8 50 10 33 33 NNE 14 22 30.03 1017 10 16 0.00 0.00
3:52 pm 15:52 Sunny 82 27.8 49 9.4 32 32 N 14 22 30.01 1016 10 16 0.00 0.00
4:52 pm 16:52 Sunny 81 27.2 51 10.6 35 35 N 14 22 30.00 1016 10 16 0.00 0.00
5:52 pm 17:52 Sunny 78 25.6 53 11.7 42 42 N 14 22 30.00 1016 10 16 0.00 0.00
6:52 pm 18:52 Sunny 76 24.4 54 12.2 47 47 N 14 22 30.01 1016 10 16 0.00 0.00
7:52 pm 19:52 Sunny 72 22.2 56 13.3 57 57 N 9 15 30.01 1016 10 16 0.00 0.00
8:52 pm 20:52 Clear 69 20.6 57 13.9 66 66 NNE 7 11 30.01 1016 10 16 0.00 0.00
9:52 pm 21:52 Clear 67 19.4 57 13.9 71 71 N 7 11 30.02 1017 10 16 0.00 0.00
10:52 pm 22:52 Clear 65 18.3 57 13.9 76 76 NNW 3 6 30.02 1017 10 16 0.00 0.00
11:52 pm 23:52 Clear 64 17.8 57 13.9 78 78 Calm 30.02 1017 10 16 0.00 0.00

Powered by AerisWeather